[[{"header":{"parameterUnit":"m.s-1","parameterCategory":2,"la1":30.2991,"la2":30.254,"lo1":-89.0895,"lo2":-89.0444,"dy":0.0017,"dx":0.0017,"nx":28,"ny":28,"refTime":"2024-12-31T09:00:00:Z","depth":"0","parameterNumber":2,"parameterNumberName":"U-component_of_CURRENTS"},"data":[0,0,0,0,0,0,0,0,0,0,0,0,0,0,0,0,0,0,0,0,0,0,0,0,0,0,0,0,0,0,0,0,0,0,0,0,0,0,0,0,0,0,0,0,0,0,0,0,0,0,0,0,0,0,0,0,0,0,-0.3771,-0.3772,0,-0.3803,-0.3803,-0.3803,-0.3797,-0.3797,-0.3797,-0.3797,-0.3706,-0.3704,-0.3702,0,0,0,0,0,0,0,0,0,0,0,0,0,-0.3769,-0.3768,-0.3771,-0.3772,-0.3773,-0.3803,-0.3803,-0.3803,-0.3797,-0.3797,-0.3797,-0.3797,-0.3707,-0.3704,-0.3701,0,0,0,0,0,0,0,0,0,0,0,0,0,-0.3777,-0.3768,-0.3771,-0.3777,-0.3779,-0.3803,-0.3803,-0.3803,-0.3797,-0.3797,-0.3797,-0.3797,-0.3708,-0.3704,-0.3701,-0.3683,0,0,-0.369,-0.3689,0,0,0,0,0,0,0,0,-0.3777,-0.3777,-0.3776,-0.3777,-0.3779,-0.38,-0.3769,-0.3758,-0.3797,-0.3785,-0.3797,-0.3797,-0.373,-0.3724,-0.3725,-0.3678,-0.3675,-0.369,-0.3688,-0.3686,-0.3685,0,0,0,0,0,0,0,-0.3776,-0.3776,-0.3779,-0.3777,-0.3779,-0.3801,-0.38,-0.3767,-0.3752,-0.3786,-0.3787,-0.3798,-0.3729,-0.3729,-0.3723,-0.3673,-0.369,-0.3687,-0.3685,-0.3684,-0.3589,-0.3589,0,0,0,0,0,0,-0.3779,-0.3775,-0.3778,-0.378,-0.3783,-0.3801,-0.38,-0.3789,-0.3755,-0.3752,-0.3799,-0.3798,-0.3735,-0.3727,-0.372,-0.369,-0.3686,-0.3683,-0.3681,-0.359,-0.3589,-0.3589,0,0,0,0,0,0,-0.3778,-0.3778,-0.3777,-0.3784,-0.3786,-0.3801,-0.3789,-0.379,-0.3794,-0.3767,-0.376,-0.3802,-0.3734,-0.3724,-0.3689,-0.3687,-0.3682,-0.3678,-0.359,-0.359,-0.3589,-0.3635,0,0,0,0,0,0,-0.3777,-0.3776,-0.3765,-0.3783,-0.3786,-0.3788,-0.379,-0.3791,-0.3803,-0.3803,-0.3767,-0.3758,-0.3734,-0.3695,-0.3686,-0.3682,-0.3676,-0.3591,-0.359,-0.3589,-0.3634,-0.3636,-0.3637,0,0,0,0,0,-0.3777,-0.3761,-0.3763,-0.3764,-0.3769,-0.3788,-0.3791,-0.3799,-0.3804,-0.3802,-0.3779,-0.376,-0.3683,-0.3692,-0.3681,-0.3676,-0.3591,-0.359,-0.3589,-0.3633,-0.3635,-0.3637,0,0,0,0,0,0,-0.3753,-0.3761,-0.3763,-0.3749,-0.3768,-0.3789,-0.3789,-0.3803,-0.3786,-0.3781,-0.3754,-0.3744,-0.3715,-0.3685,-0.3695,-0.3645,-0.3634,-0.3631,-0.367,-0.3672,-0.3674,-0.3694,-0.3673,0,0,0,0,0,-0.3744,-0.373,-0.3753,-0.3742,-0.375,-0.3771,-0.378,-0.3791,-0.3787,-0.3782,-0.3757,-0.3726,-0.3703,-0.368,-0.3652,-0.362,-0.3575,-0.3609,-0.3611,-0.3613,-0.3621,-0.354,-0.3535,-0.3586,-0.3586,-0.3586,0,0,-0.3735,-0.3736,-0.373,-0.3736,-0.3747,-0.3774,-0.3773,-0.3788,-0.3804,-0.3771,-0.3761,-0.3733,-0.3698,-0.367,-0.3653,-0.3643,-0.3574,-0.3611,-0.3614,-0.3621,-0.3539,-0.3534,-0.3529,-0.3585,-0.3585,-0.3585,0,0,-0.3729,-0.3708,-0.3709,-0.3727,-0.3751,-0.3766,-0.3774,-0.3793,-0.3788,-0.3784,-0.3765,-0.3734,-0.3696,-0.3669,-0.3653,-0.3644,-0.3592,-0.3634,-0.3652,-0.3573,-0.3569,-0.3564,-0.3499,-0.3488,-0.3628,-0.3628,-0.3628,0,-0.3711,-0.3719,-0.3715,-0.3736,-0.375,-0.3768,-0.3791,-0.3799,-0.3802,-0.3788,-0.3782,-0.3728,-0.3698,-0.3669,-0.3673,-0.3649,-0.36,-0.365,-0.3576,-0.3571,-0.3565,-0.3499,-0.3487,-0.363,-0.363,-0.3629,-0.3629,0,-0.3722,-0.3736,-0.3738,-0.3764,-0.378,-0.3795,-0.3819,-0.382,-0.3818,-0.3817,-0.3782,-0.3742,-0.3703,-0.3694,-0.3687,-0.3639,-0.3616,-0.3594,-0.3574,-0.3563,-0.3494,-0.348,-0.3633,-0.3632,-0.3631,-0.3631,0,0,-0.3631,-0.3727,-0.372,-0.3744,-0.3792,-0.3794,-0.3828,-0.3837,-0.3831,-0.3823,-0.3796,-0.3773,-0.374,-0.3721,-0.3693,-0.3641,-0.3565,-0.361,-0.3605,-0.3553,-0.3395,-0.3296,-0.3271,-0.3526,-0.3524,-0.3522,-0.3363,0,-0.3627,-0.3682,-0.3727,-0.3763,-0.3787,-0.382,-0.384,-0.385,-0.3843,-0.3815,-0.3781,-0.3743,-0.3753,-0.372,-0.3676,-0.359,-0.3531,-0.3611,-0.3408,-0.3402,-0.3321,-0.3252,-0.3116,-0.2954,-0.3349,-0.3347,-0.3345,0,-0.359,-0.364,-0.369,-0.3753,-0.376,-0.3786,-0.3788,-0.3808,-0.3802,-0.3791,-0.3768,-0.3736,-0.3681,-0.3674,-0.3536,-0.3585,-0.35,-0.3438,-0.3428,-0.3313,-0.3277,-0.3028,-0.2914,-0.2903,-0.3323,-0.3325,-0.3326,0,-0.3489,-0.3582,-0.3616,-0.3641,-0.3733,-0.374,-0.3769,-0.3785,-0.3754,-0.3762,-0.3716,-0.3688,-0.3611,-0.3538,-0.3432,-0.3469,-0.326,-0.3278,-0.3113,-0.3105,-0.2937,-0.2917,-0.2791,-0.3162,-0.3162,-0.3163,-0.3163,0,-0.3431,-0.3445,-0.3573,-0.3586,-0.3587,-0.3675,-0.3641,-0.3683,-0.368,-0.3612,-0.3673,-0.3595,-0.3566,-0.3453,-0.3397,-0.3196,-0.3215,-0.3097,-0.3043,-0.2948,-0.2933,-0.2875,-0.2925,-0.3157,-0.3158,-0.3159,-0.316,0,-0.3291,-0.3395,-0.3419,-0.3522,-0.3539,-0.3524,-0.354,-0.3498,-0.3554,-0.3465,-0.3454,-0.3462,-0.3342,-0.3292,-0.3148,-0.309,-0.2889,-0.288,-0.2784,-0.2722,-0.2575,-0.2632,-0.2453,-0.2381,-0.2671,-0.2667,-0.2664,0,-0.3219,-0.323,-0.3317,-0.3299,-0.3337,-0.3339,-0.3311,-0.3402,-0.3359,-0.3357,-0.3283,-0.3205,-0.3093,-0.2889,-0.2799,-0.2656,-0.2698,-0.2463,-0.2509,-0.2523,-0.2548,-0.2608,-0.2567,-0.2305,-0.2299,-0.2294,-0.2291,0,-0.3051,-0.3085,-0.3098,-0.3077,-0.306,-0.3043,-0.3037,-0.3002,-0.3075,-0.3032,-0.2954,-0.2883,-0.2734,-0.2548,-0.2415,-0.2331,-0.241,-0.2361,-0.2375,-0.2246,-0.2297,-0.2216,-0.2488,-0.2249,-0.2253,-0.2256,-0.2258,-0.226,-0.2868,-0.2821,-0.2825,-0.2784,-0.2774,-0.2725,-0.2644,-0.2666,-0.2604,-0.2528,-0.2602,-0.2466,-0.2383,-0.2178,-0.2089,-0.1949,-0.2063,-0.1912,-0.1978,-0.2036,-0.197,-0.2163,-0.187,-0.1872,-0.1874,-0.1875,-0.1877,0,-0.2592,-0.2562,-0.2513,-0.2465,-0.2371,-0.2461,-0.2412,-0.2316,-0.2207,-0.2218,-0.214,-0.2041,-0.1869,-0.1831,-0.1707,-0.1614,-0.16,-0.1598,-0.1662,-0.1635,-0.1771,-0.1759,-0.1425,-0.1425,-0.1425,-0.1425,-0.1425,-0.1425,-0.2442,-0.2293,-0.2284,-0.207,-0.204,-0.1871,-0.1817,-0.1751,-0.1729,-0.1616,-0.1592,-0.161,-0.1625,-0.1723,-0.1587,-0.1496,-0.1498,-0.1429,-0.1499,-0.1636,-0.1672,-0.1707,-0.1705,-0.1366,-0.1366,-0.128,-0.128,-0.128]},{"header":{"parameterUnit":"m.s-1","parameterCategory":2,"la1":30.2991,"la2":30.254,"lo1":-89.0895,"lo2":-89.0444,"dy":0.0017,"dx":0.0017,"nx":28,"ny":28,"refTime":"2024-12-31T09:00:00:Z","depth":"0","parameterNumber":3,"parameterNumberName":"V-component_of_CURRENTS"},"data":[0,0,0,0,0,0,0,0,0,0,0,0,0,0,0,0,0,0,0,0,0,0,0,0,0,0,0,0,0,0,0,0,0,0,0,0,0,0,0,0,0,0,0,0,0,0,0,0,0,0,0,0,0,0,0,0,0,0,-0.0929,-0.0928,0,-0.0777,-0.0775,-0.0773,-0.0686,-0.0686,-0.0686,-0.0686,-0.0458,-0.0452,-0.0446,0,0,0,0,0,0,0,0,0,0,0,0,0,-0.1124,-0.1121,-0.0929,-0.0928,-0.0926,-0.0777,-0.0775,-0.0772,-0.0686,-0.0686,-0.0686,-0.0686,-0.0459,-0.0452,-0.0445,0,0,0,0,0,0,0,0,0,0,0,0,0,-0.101,-0.112,-0.093,-0.0867,-0.086,-0.0778,-0.0775,-0.0772,-0.0686,-0.0686,-0.0686,-0.0686,-0.0462,-0.0453,-0.0444,-0.0391,0,0,-0.0417,-0.0413,0,0,0,0,0,0,0,0,-0.1017,-0.1003,-0.0878,-0.0871,-0.0863,-0.0752,-0.076,-0.0641,-0.0686,-0.0749,-0.0686,-0.0686,-0.0551,-0.0534,-0.0504,-0.038,-0.0371,-0.0416,-0.041,-0.0407,-0.0404,0,0,0,0,0,0,0,-0.1025,-0.1009,-0.0866,-0.0876,-0.0867,-0.0839,-0.0822,-0.0737,-0.0649,-0.0744,-0.0738,-0.0725,-0.0546,-0.0513,-0.0497,-0.0367,-0.0416,-0.0408,-0.0403,-0.0399,-0.0183,-0.0182,0,0,0,0,0,0,-0.1049,-0.1016,-0.0871,-0.0862,-0.0944,-0.0836,-0.0817,-0.0786,-0.0652,-0.0632,-0.0725,-0.0721,-0.0528,-0.0508,-0.0489,-0.0426,-0.0407,-0.0398,-0.0393,-0.0183,-0.0183,-0.0182,0,0,0,0,0,0,-0.1053,-0.1037,-0.0877,-0.0939,-0.0917,-0.0833,-0.0798,-0.0783,-0.0753,-0.0639,-0.0617,-0.0711,-0.0527,-0.0502,-0.0419,-0.0416,-0.0394,-0.0386,-0.0184,-0.0183,-0.0183,-0.0293,0,0,0,0,0,0,-0.1059,-0.1039,-0.1029,-0.094,-0.0914,-0.084,-0.0798,-0.078,-0.0746,-0.0739,-0.0619,-0.0598,-0.0525,-0.0433,-0.041,-0.0403,-0.0379,-0.0184,-0.0183,-0.0183,-0.029,-0.0297,-0.0302,0,0,0,0,0,-0.1066,-0.1055,-0.1029,-0.1012,-0.0901,-0.0841,-0.0825,-0.0764,-0.0746,-0.0735,-0.0655,-0.0602,-0.0413,-0.0425,-0.0398,-0.0389,-0.0184,-0.0184,-0.0183,-0.0287,-0.0295,-0.0302,0,0,0,0,0,0,-0.1135,-0.1043,-0.1012,-0.0973,-0.0918,-0.0827,-0.0815,-0.0773,-0.0701,-0.0698,-0.0592,-0.0564,-0.0493,-0.0424,-0.0441,-0.0324,-0.0291,-0.0285,-0.038,-0.0386,-0.0392,-0.0415,-0.0371,0,0,0,0,0,-0.1146,-0.1113,-0.1028,-0.1,-0.0978,-0.0899,-0.0869,-0.0829,-0.0754,-0.0724,-0.0638,-0.0548,-0.0467,-0.0417,-0.0337,-0.0267,-0.0193,-0.0244,-0.025,-0.0256,-0.0255,-0.0132,-0.0127,-0.018,-0.018,-0.018,0,0,-0.1172,-0.1113,-0.1098,-0.1014,-0.0967,-0.0945,-0.088,-0.0845,-0.0819,-0.0708,-0.0648,-0.0567,-0.0455,-0.0384,-0.0345,-0.0325,-0.0207,-0.0255,-0.0261,-0.0257,-0.013,-0.0125,-0.012,-0.0179,-0.0179,-0.0179,0,0,-0.1214,-0.1151,-0.1145,-0.1102,-0.1038,-0.0986,-0.0983,-0.0896,-0.085,-0.0785,-0.0701,-0.0619,-0.0497,-0.0412,-0.0355,-0.0342,-0.0249,-0.032,-0.0358,-0.0239,-0.0234,-0.0228,-0.0156,-0.0143,-0.0316,-0.0316,-0.0317,0,-0.1246,-0.1218,-0.1139,-0.1125,-0.1096,-0.1014,-0.101,-0.0953,-0.085,-0.08,-0.0784,-0.0591,-0.0509,-0.0399,-0.0404,-0.0356,-0.0287,-0.0345,-0.0248,-0.024,-0.0233,-0.016,-0.0144,-0.0322,-0.0321,-0.0321,-0.032,0,-0.1282,-0.1266,-0.1262,-0.1211,-0.1171,-0.1154,-0.1069,-0.1021,-0.0962,-0.089,-0.0777,-0.066,-0.0539,-0.0506,-0.0454,-0.0355,-0.0327,-0.0279,-0.0236,-0.0234,-0.0158,-0.014,-0.0329,-0.0327,-0.0326,-0.0324,0,0,-0.1323,-0.1295,-0.129,-0.1286,-0.1212,-0.1178,-0.1136,-0.1051,-0.1004,-0.0908,-0.0828,-0.0702,-0.0629,-0.056,-0.0469,-0.0375,-0.0282,-0.0318,-0.0309,-0.0261,-0.0046,-0.0019,0.0004,-0.0212,-0.0209,-0.0207,-0.0027,0,-0.1373,-0.1387,-0.134,-0.1346,-0.1349,-0.1254,-0.121,-0.1121,-0.1033,-0.0937,-0.0802,-0.0696,-0.065,-0.0585,-0.0489,-0.0319,-0.0233,-0.0337,-0.0042,-0.0035,-0.002,0.0027,0.0074,0.0241,-0.0008,-0.0005,-0.0002,0,-0.1412,-0.1417,-0.1444,-0.1403,-0.1388,-0.1373,-0.1267,-0.1216,-0.1068,-0.0987,-0.0867,-0.0752,-0.0598,-0.0562,-0.0291,-0.0358,-0.0223,-0.0104,-0.0093,-0.0012,0.0029,0.0208,0.0285,0.0455,0.0027,0.0025,0.0023,0,-0.1474,-0.1473,-0.1497,-0.1486,-0.1435,-0.141,-0.1366,-0.1239,-0.1166,-0.1015,-0.0935,-0.0751,-0.0626,-0.044,-0.0217,-0.0236,0.0076,0.0093,0.0239,0.0241,0.0368,0.0376,0.0639,0.028,0.0279,0.0279,0.0278,0,-0.1529,-0.1542,-0.1537,-0.1547,-0.155,-0.148,-0.1431,-0.1355,-0.1221,-0.1118,-0.097,-0.0838,-0.0583,-0.0377,-0.0207,0.0074,0.0096,0.0245,0.0307,0.0326,0.0328,0.0552,0.0598,0.0286,0.0284,0.0283,0.0282,0,-0.1587,-0.159,-0.1616,-0.1594,-0.1588,-0.1586,-0.1492,-0.1429,-0.131,-0.1171,-0.1115,-0.0865,-0.059,-0.0353,-0.0021,0.0113,0.0475,0.0447,0.0421,0.0476,0.0744,0.078,0.1091,0.1191,0.064,0.0642,0.0644,0,-0.1612,-0.1645,-0.166,-0.1666,-0.1663,-0.1642,-0.16,-0.1491,-0.1407,-0.117,-0.1091,-0.0813,-0.0582,-0.0126,0.0166,0.0478,0.0599,0.0691,0.0666,0.0784,0.0871,0.0891,0.0953,0.0784,0.0786,0.0789,0.079,0,-0.1654,-0.1666,-0.1683,-0.171,-0.17,-0.1674,-0.1614,-0.1568,-0.1396,-0.1254,-0.1015,-0.0824,-0.0387,0.0006,0.0385,0.0572,0.0813,0.0744,0.0919,0.1047,0.1043,0.1159,0.0596,0.081,0.0808,0.0807,0.0806,0.0805,-0.1661,-0.1683,-0.1697,-0.1718,-0.1715,-0.1679,-0.1635,-0.1526,-0.1391,-0.1132,-0.0975,-0.0614,-0.0119,0.0434,0.0634,0.1059,0.1,0.1193,0.1237,0.1253,0.1331,0.0771,0.1017,0.1016,0.1016,0.1015,0.1015,0,-0.1628,-0.1649,-0.168,-0.1693,-0.1683,-0.1681,-0.1597,-0.1499,-0.1326,-0.1057,-0.0806,-0.0178,0.0321,0.0767,0.1321,0.1548,0.159,0.1659,0.1726,0.1774,0.1354,0.134,0.1605,0.1605,0.1605,0.1605,0.1604,0.1604,-0.1607,-0.161,-0.1633,-0.1635,-0.1646,-0.1587,-0.1535,-0.1379,-0.1167,-0.0718,-0.0314,-0.0009,0.0597,0.1441,0.1963,0.2012,0.22,0.2175,0.2269,0.1991,0.1951,0.1913,0.1916,0.2298,0.2298,0.2692,0.2696,0.2699]}],[{"header":{"parameterUnit":"m.s-1","parameterCategory":2,"la1":30.2991,"la2":30.254,"lo1":-89.0895,"lo2":-89.0444,"dy":0.0017,"dx":0.0017,"nx":28,"ny":28,"refTime":"2024-12-31T09:00:00:Z","depth":"2","parameterNumber":2,"parameterNumberName":"U-component_of_CURRENTS"},"data":[0,0,0,0,0,0,0,0,0,0,0,0,0,0,0,0,0,0,0,0,0,0,0,0,0,0,0,0,0,0,0,0,0,0,0,0,0,0,0,0,0,0,0,0,0,0,0,0,0,0,0,0,0,0,0,0,0,0,-0.2911,-0.2911,0,-0.2957,-0.2958,-0.2958,-0.2951,-0.295,-0.2949,-0.2948,-0.2914,-0.2915,-0.2915,0,0,0,0,0,0,0,0,0,0,0,0,0,-0.2814,-0.2816,-0.2911,-0.2911,-0.2912,-0.2957,-0.2958,-0.2959,-0.2951,-0.295,-0.2948,-0.2947,-0.2914,-0.2914,-0.2915,0,0,0,0,0,0,0,0,0,0,0,0,0,-0.2861,-0.2817,-0.2911,-0.291,-0.291,-0.2956,-0.2958,-0.2959,-0.2951,-0.295,-0.2948,-0.2946,-0.2914,-0.2914,-0.2915,-0.2951,0,0,-0.2916,-0.2916,0,0,0,0,0,0,0,0,-0.2858,-0.2865,-0.291,-0.291,-0.2911,-0.2943,-0.2911,-0.2951,-0.2952,-0.294,-0.2948,-0.2946,-0.2915,-0.2915,-0.2935,-0.295,-0.2948,-0.2916,-0.2916,-0.2916,-0.2916,0,0,0,0,0,0,0,-0.2855,-0.2863,-0.2933,-0.2911,-0.2911,-0.2906,-0.2911,-0.2919,-0.2938,-0.2941,-0.294,-0.2939,-0.2915,-0.2935,-0.2933,-0.2948,-0.2916,-0.2916,-0.2916,-0.2916,-0.2957,-0.2958,0,0,0,0,0,0,-0.2844,-0.2861,-0.2932,-0.2934,-0.2875,-0.2909,-0.2915,-0.2938,-0.294,-0.2938,-0.294,-0.2938,-0.2935,-0.2933,-0.2932,-0.2951,-0.2916,-0.2916,-0.2916,-0.2956,-0.2957,-0.2958,0,0,0,0,0,0,-0.2843,-0.2851,-0.293,-0.2893,-0.2902,-0.2912,-0.2938,-0.2939,-0.2961,-0.294,-0.2937,-0.2959,-0.2933,-0.2932,-0.2925,-0.2949,-0.2916,-0.2917,-0.2955,-0.2956,-0.2958,-0.3002,0,0,0,0,0,0,-0.284,-0.2851,-0.2862,-0.2894,-0.2904,-0.2953,-0.2939,-0.2941,-0.2961,-0.2959,-0.2955,-0.295,-0.2932,-0.2924,-0.2925,-0.2949,-0.2917,-0.2954,-0.2956,-0.2957,-0.3,-0.3005,-0.301,0,0,0,0,0,-0.2837,-0.286,-0.2863,-0.2871,-0.292,-0.2953,-0.2959,-0.2961,-0.2963,-0.2975,-0.2962,-0.295,-0.2936,-0.2925,-0.2926,-0.2951,-0.2953,-0.2955,-0.2957,-0.2998,-0.3004,-0.301,0,0,0,0,0,0,-0.2813,-0.2862,-0.2866,-0.2899,-0.292,-0.295,-0.2961,-0.2973,-0.298,-0.2969,-0.2959,-0.2953,-0.2961,-0.295,-0.2939,-0.2968,-0.2945,-0.2947,-0.2976,-0.2982,-0.2987,-0.2988,-0.2917,0,0,0,0,0,-0.2816,-0.2851,-0.2884,-0.2907,-0.2922,-0.2948,-0.2962,-0.2964,-0.2974,-0.2977,-0.2978,-0.2972,-0.2975,-0.297,-0.297,-0.2984,-0.2956,-0.3002,-0.3007,-0.3011,-0.3013,-0.2992,-0.2995,-0.2965,-0.2965,-0.2965,0,0,-0.2798,-0.284,-0.2848,-0.2904,-0.2923,-0.295,-0.2953,-0.2974,-0.2993,-0.2971,-0.2996,-0.2993,-0.2984,-0.2995,-0.2999,-0.2984,-0.3003,-0.3014,-0.3018,-0.3016,-0.2995,-0.2997,-0.3,-0.2966,-0.2966,-0.2966,0,0,-0.2793,-0.2835,-0.2858,-0.2892,-0.2927,-0.2948,-0.2959,-0.2995,-0.3008,-0.3031,-0.3019,-0.3024,-0.3039,-0.3032,-0.3032,-0.3067,-0.3033,-0.3075,-0.3097,-0.3078,-0.308,-0.3081,-0.3034,-0.3031,-0.3073,-0.3073,-0.3073,0,-0.2779,-0.2821,-0.2863,-0.2904,-0.2932,-0.2953,-0.298,-0.3003,-0.3028,-0.3042,-0.3036,-0.3067,-0.3058,-0.3073,-0.3081,-0.3079,-0.3051,-0.3075,-0.3083,-0.3084,-0.3085,-0.3037,-0.3033,-0.3076,-0.3075,-0.3075,-0.3075,0,-0.2789,-0.2828,-0.2849,-0.2913,-0.2947,-0.2976,-0.3014,-0.3038,-0.3062,-0.3081,-0.3111,-0.3105,-0.3119,-0.3127,-0.3114,-0.3126,-0.3098,-0.3095,-0.3066,-0.3091,-0.3038,-0.3033,-0.3079,-0.3078,-0.3078,-0.3077,0,0,-0.2752,-0.2842,-0.285,-0.288,-0.2962,-0.2985,-0.303,-0.3075,-0.3099,-0.3125,-0.3158,-0.3174,-0.3176,-0.3176,-0.3169,-0.3154,-0.3131,-0.3128,-0.3126,-0.3077,-0.3065,-0.2954,-0.2937,-0.3128,-0.3128,-0.3128,-0.302,0,-0.2751,-0.282,-0.2874,-0.2923,-0.2957,-0.3014,-0.3059,-0.3097,-0.3132,-0.3163,-0.3172,-0.3197,-0.3195,-0.3201,-0.319,-0.3149,-0.3122,-0.3159,-0.3052,-0.3048,-0.2944,-0.293,-0.2721,-0.26,-0.3015,-0.3014,-0.3013,0,-0.2741,-0.2795,-0.2851,-0.2938,-0.2961,-0.2996,-0.3073,-0.3114,-0.3164,-0.3193,-0.3221,-0.323,-0.3227,-0.3219,-0.316,-0.3182,-0.3128,-0.309,-0.3085,-0.2963,-0.2929,-0.2646,-0.2575,-0.3004,-0.3005,-0.3006,-0.3006,0,-0.2684,-0.2777,-0.2824,-0.2857,-0.2956,-0.2991,-0.3044,-0.3115,-0.3142,-0.3206,-0.3213,-0.3239,-0.3219,-0.3189,-0.3118,-0.3139,-0.3027,-0.3044,-0.2892,-0.2882,-0.2672,-0.2645,-0.2994,-0.2994,-0.2994,-0.2994,-0.2995,0,-0.267,-0.2698,-0.2797,-0.2822,-0.2862,-0.2958,-0.3006,-0.3062,-0.313,-0.3134,-0.3213,-0.3195,-0.3208,-0.3151,-0.3109,-0.2965,-0.3016,-0.2881,-0.2846,-0.268,-0.2656,-0.299,-0.2992,-0.299,-0.2991,-0.2992,-0.2992,0,-0.2582,-0.2659,-0.2699,-0.2805,-0.2831,-0.2856,-0.2956,-0.298,-0.3069,-0.3071,-0.3086,-0.3133,-0.3062,-0.3043,-0.2966,-0.2911,-0.282,-0.2756,-0.2548,-0.2491,-0.2692,-0.2697,-0.2581,-0.2576,-0.2572,-0.2569,-0.2566,0,-0.2544,-0.2555,-0.2649,-0.2661,-0.2705,-0.2763,-0.2794,-0.2917,-0.2938,-0.3003,-0.2973,-0.2953,-0.2873,-0.2738,-0.2654,-0.2541,-0.2663,-0.2301,-0.2313,-0.2671,-0.2649,-0.2661,-0.2671,-0.2044,-0.2037,-0.2031,-0.2027,0,-0.2442,-0.2476,-0.2507,-0.2532,-0.2564,-0.2595,-0.2652,-0.2659,-0.2774,-0.2776,-0.2736,-0.2688,-0.2574,-0.2365,-0.2258,-0.218,-0.2315,-0.2181,-0.2585,-0.2193,-0.2158,-0.214,-0.2169,-0.1976,-0.1982,-0.1985,-0.1988,-0.199,-0.2342,-0.2328,-0.2364,-0.2366,-0.2399,-0.2391,-0.2355,-0.2417,-0.2405,-0.2361,-0.2433,-0.2286,-0.2255,-0.1965,-0.185,-0.1782,-0.195,-0.1883,-0.1903,-0.1928,-0.1898,-0.1859,-0.1613,-0.1616,-0.1618,-0.162,-0.1622,0,-0.2191,-0.219,-0.2192,-0.2183,-0.2138,-0.2217,-0.2215,-0.2141,-0.2054,-0.2058,-0.1989,-0.1743,-0.1588,-0.1575,-0.1377,-0.1344,-0.1357,-0.13,-0.1324,-0.1373,-0.1417,-0.1364,-0.0936,-0.0934,-0.0932,-0.093,0,0,-0.2107,-0.2049,-0.2044,-0.191,-0.19,-0.1773,-0.1729,-0.1655,-0.1616,-0.1488,-0.1414,-0.1487,-0.1507,-0.1223,-0.1157,-0.1013,-0.1186,-0.0957,-0.1502,-0.1577,-0.1619,-0.1739,-0.1711,0,0,0,0,0]},{"header":{"parameterUnit":"m.s-1","parameterCategory":2,"la1":30.2991,"la2":30.254,"lo1":-89.0895,"lo2":-89.0444,"dy":0.0017,"dx":0.0017,"nx":28,"ny":28,"refTime":"2024-12-31T09:00:00:Z","depth":"2","parameterNumber":3,"parameterNumberName":"V-component_of_CURRENTS"},"data":[0,0,0,0,0,0,0,0,0,0,0,0,0,0,0,0,0,0,0,0,0,0,0,0,0,0,0,0,0,0,0,0,0,0,0,0,0,0,0,0,0,0,0,0,0,0,0,0,0,0,0,0,0,0,0,0,0,0,-0.0354,-0.0353,0,-0.0238,-0.0237,-0.0235,-0.0158,-0.0157,-0.0157,-0.0156,0.0006,0.001,0.0014,0,0,0,0,0,0,0,0,0,0,0,0,0,-0.0387,-0.0388,-0.0354,-0.0353,-0.0351,-0.0238,-0.0237,-0.0235,-0.0158,-0.0157,-0.0156,-0.0156,0.0005,0.0009,0.0014,0,0,0,0,0,0,0,0,0,0,0,0,0,-0.0333,-0.0388,-0.0355,-0.0299,-0.0293,-0.0238,-0.0237,-0.0235,-0.0158,-0.0157,-0.0156,-0.0155,0.0003,0.0009,0.0015,0.0032,0,0,0.0032,0.0034,0,0,0,0,0,0,0,0,-0.0336,-0.0332,-0.0309,-0.0303,-0.0296,-0.0211,-0.0189,-0.0143,-0.0158,-0.021,-0.0156,-0.0155,-0.0063,-0.0052,-0.0033,0.004,0.0047,0.0032,0.0036,0.0038,0.004,0,0,0,0,0,0,0,-0.034,-0.0336,-0.0309,-0.0307,-0.0299,-0.0238,-0.023,-0.0179,-0.0142,-0.0205,-0.0199,-0.0186,-0.0059,-0.0038,-0.0028,0.0049,0.0032,0.0037,0.0041,0.0043,0.0171,0.017,0,0,0,0,0,0,-0.0362,-0.034,-0.0312,-0.0305,-0.0314,-0.0238,-0.023,-0.0239,-0.0143,-0.0128,-0.0186,-0.0182,-0.0049,-0.0035,-0.0022,0.0015,0.0038,0.0044,0.0047,0.0171,0.0171,0.017,0,0,0,0,0,0,-0.0363,-0.0361,-0.0317,-0.0318,-0.0308,-0.024,-0.025,-0.0238,-0.0217,-0.0129,-0.0113,-0.0179,-0.0047,-0.003,0.0027,0.0022,0.0046,0.0051,0.0171,0.0171,0.017,0.0083,0,0,0,0,0,0,-0.0365,-0.0363,-0.0377,-0.0321,-0.0309,-0.0291,-0.0251,-0.0236,-0.021,-0.0203,-0.0118,-0.0102,-0.0045,0.0018,0.0033,0.003,0.0056,0.0171,0.0171,0.0171,0.0086,0.008,0.0075,0,0,0,0,0,-0.0367,-0.0393,-0.0379,-0.0375,-0.0332,-0.0292,-0.028,-0.0227,-0.0211,-0.0206,-0.0143,-0.0104,0.0028,0.0023,0.004,0.0038,0.0171,0.0171,0.0171,0.0088,0.0081,0.0075,0,0,0,0,0,0,-0.0408,-0.0385,-0.0369,-0.0386,-0.0344,-0.0279,-0.0271,-0.0237,-0.0186,-0.0179,-0.0101,-0.0081,-0.0036,0.0014,0.0006,0.0076,0.0104,0.0108,0.0036,0.003,0.0024,0.0011,0.006,0,0,0,0,0,-0.0428,-0.0446,-0.0399,-0.041,-0.0397,-0.0337,-0.0316,-0.028,-0.0226,-0.0203,-0.0144,-0.0079,-0.0023,0.0012,0.0066,0.0107,0.0161,0.0117,0.0111,0.0106,0.0107,0.0185,0.0186,0.017,0.017,0.017,0,0,-0.0437,-0.0436,-0.0438,-0.0421,-0.0387,-0.037,-0.0323,-0.0297,-0.0277,-0.0194,-0.0156,-0.01,-0.0018,0.0027,0.0052,0.007,0.0137,0.0106,0.0101,0.0106,0.0185,0.0186,0.0188,0.017,0.017,0.017,0,0,-0.0472,-0.0475,-0.0496,-0.0474,-0.0439,-0.0401,-0.04,-0.0341,-0.031,-0.0267,-0.0203,-0.0148,-0.0068,-0.0005,0.0036,0.0034,0.01,0.0045,0.0015,0.0088,0.009,0.0093,0.0151,0.0159,0.0048,0.0048,0.0048,0,-0.0496,-0.0516,-0.0489,-0.0501,-0.049,-0.0423,-0.0427,-0.0382,-0.031,-0.0284,-0.0267,-0.0144,-0.008,-0.001,-0.001,0.0022,0.0069,0.0029,0.008,0.0084,0.0088,0.0148,0.0158,0.0044,0.0044,0.0044,0.0045,0,-0.0533,-0.0548,-0.0559,-0.0559,-0.0538,-0.0535,-0.0474,-0.0444,-0.0406,-0.0354,-0.029,-0.0202,-0.0127,-0.0101,-0.0053,0.0004,0.0029,0.0057,0.0092,0.0084,0.0148,0.016,0.0037,0.0039,0.004,0.0041,0,0,-0.0601,-0.0594,-0.0599,-0.0608,-0.0576,-0.0564,-0.0533,-0.0483,-0.046,-0.0388,-0.0352,-0.0255,-0.0209,-0.0159,-0.0092,-0.0023,0.004,0.0021,0.0027,0.007,0.0194,0.0223,0.024,0.0076,0.0078,0.0079,0.0222,0,-0.0645,-0.069,-0.0665,-0.0684,-0.0695,-0.0636,-0.0614,-0.0556,-0.0496,-0.0441,-0.0341,-0.0284,-0.0229,-0.0198,-0.0122,0.0004,0.007,-0.0002,0.0204,0.021,0.0231,0.0255,0.0224,0.0351,0.0235,0.0237,0.0239,0,-0.0694,-0.0719,-0.076,-0.0756,-0.0756,-0.0753,-0.0713,-0.0682,-0.0578,-0.053,-0.0447,-0.0364,-0.0252,-0.0213,-0.0006,-0.0056,0.0056,0.0152,0.0161,0.0229,0.0263,0.0345,0.0378,0.026,0.0258,0.0257,0.0255,0,-0.0768,-0.0785,-0.083,-0.0831,-0.081,-0.0814,-0.0796,-0.0715,-0.0687,-0.0586,-0.0546,-0.0407,-0.0328,-0.0174,0.0022,0.001,0.0251,0.0264,0.0396,0.0399,0.0437,0.044,0.0405,0.0405,0.0405,0.0405,0.0404,0,-0.0841,-0.087,-0.0871,-0.0899,-0.0935,-0.0892,-0.0904,-0.0854,-0.0778,-0.073,-0.0606,-0.0524,-0.0312,-0.0146,0.0014,0.0248,0.025,0.0401,0.0446,0.0404,0.0402,0.0375,0.037,0.041,0.0409,0.0408,0.0407,0,-0.0914,-0.0918,-0.0966,-0.0972,-0.0977,-0.1005,-0.099,-0.0981,-0.0898,-0.083,-0.08,-0.0598,-0.0374,-0.016,0.0114,0.0247,0.0457,0.0536,0.0464,0.0498,0.0554,0.0542,0.0697,0.0699,0.0701,0.0703,0.0704,0,-0.096,-0.0994,-0.1037,-0.1073,-0.1085,-0.1112,-0.1122,-0.1056,-0.1026,-0.0857,-0.0817,-0.0595,-0.0402,-0.0007,0.0255,0.0537,0.0533,0.0665,0.0642,0.056,0.0588,0.0573,0.0559,0.0655,0.0656,0.0657,0.0658,0,-0.104,-0.1057,-0.11,-0.1171,-0.1208,-0.1228,-0.1226,-0.1213,-0.11,-0.0998,-0.0804,-0.0639,-0.0263,0.006,0.0403,0.0561,0.0612,0.0689,0.0653,0.0576,0.053,0.0554,0.054,0.0664,0.0663,0.0663,0.0663,0.0662,-0.1097,-0.1148,-0.1205,-0.1263,-0.1302,-0.1309,-0.1302,-0.1242,-0.1154,-0.094,-0.0795,-0.0482,-0.0223,0.0304,0.0512,0.071,0.0715,0.0771,0.0765,0.0759,0.0719,0.0678,0.0832,0.0832,0.0832,0.0832,0.0832,0,-0.1156,-0.1211,-0.1284,-0.134,-0.1374,-0.1372,-0.1337,-0.1265,-0.1118,-0.0888,-0.0659,-0.0299,0.0044,0.0312,0.0634,0.0807,0.0777,0.0827,0.075,0.0743,0.0738,0.0692,0.0801,0.0801,0.0801,0.0801,0,0,-0.1189,-0.1276,-0.1305,-0.1372,-0.1404,-0.1387,-0.1348,-0.1196,-0.1007,-0.0732,-0.0477,-0.0199,0.0111,0.0327,0.052,0.0677,0.0663,0.0687,0.0698,0.0576,0.0568,0.0695,0.0618,0,0,0,0,0]}],[{"header":{"parameterUnit":"m.s-1","parameterCategory":2,"la1":30.2991,"la2":30.254,"lo1":-89.0895,"lo2":-89.0444,"dy":0.0017,"dx":0.0017,"nx":28,"ny":28,"refTime":"2024-12-31T09:00:00:Z","depth":"4","parameterNumber":2,"parameterNumberName":"U-component_of_CURRENTS"},"data":[0,0,0,0,0,0,0,0,0,0,0,0,0,0,0,0,0,0,0,0,0,0,0,0,0,0,0,0,0,0,0,0,0,0,0,0,0,0,0,0,0,0,0,0,0,0,0,0,0,0,0,0,0,0,0,0,0,0,-0.1829,-0.183,0,-0.1896,-0.1896,-0.1897,-0.1943,-0.1943,-0.1944,-0.1945,-0.2033,-0.2035,-0.2037,0,0,0,0,0,0,0,0,0,0,0,0,0,-0.1685,-0.1687,-0.1828,-0.183,-0.1831,-0.1896,-0.1896,-0.1897,-0.1943,-0.1943,-0.1944,-0.1945,-0.2033,-0.2035,-0.2037,0,0,0,0,0,0,0,0,0,0,0,0,0,-0.1746,-0.1688,-0.1828,-0.1864,-0.1868,-0.1896,-0.1896,-0.1897,-0.1942,-0.1943,-0.1944,-0.1945,-0.2032,-0.2035,-0.2037,-0.2034,0,0,-0.2045,-0.2047,0,0,0,0,0,0,0,0,-0.1742,-0.1751,-0.1857,-0.1861,-0.1866,-0.1915,-0.1878,-0.1945,-0.1942,-0.1911,-0.1945,-0.1946,-0.1997,-0.2003,-0.2008,-0.2039,-0.2042,-0.2046,-0.2047,-0.2048,-0.2049,0,0,0,0,0,0,0,-0.1738,-0.1748,-0.1852,-0.1859,-0.1864,-0.1858,-0.1868,-0.1891,-0.1945,-0.1913,-0.1918,-0.193,-0.1999,-0.2005,-0.2011,-0.2044,-0.2046,-0.2048,-0.205,-0.2051,-0.2201,-0.2203,0,0,0,0,0,0,-0.1739,-0.1744,-0.185,-0.1854,-0.1809,-0.186,-0.1871,-0.1895,-0.1945,-0.1954,-0.1929,-0.1932,-0.2,-0.2008,-0.2014,-0.2113,-0.2048,-0.2051,-0.2052,-0.2199,-0.2202,-0.2204,0,0,0,0,0,0,-0.1736,-0.1748,-0.1847,-0.1802,-0.1815,-0.1862,-0.1889,-0.1896,-0.1937,-0.1957,-0.1967,-0.1967,-0.2001,-0.201,-0.2077,-0.2113,-0.2052,-0.2054,-0.2196,-0.22,-0.2203,-0.2247,0,0,0,0,0,0,-0.1731,-0.1747,-0.1777,-0.1803,-0.1818,-0.1888,-0.1889,-0.1897,-0.1943,-0.1948,-0.1992,-0.1999,-0.2003,-0.2074,-0.208,-0.2116,-0.2056,-0.2193,-0.2198,-0.2202,-0.2243,-0.2252,-0.226,0,0,0,0,0,-0.1726,-0.1754,-0.1778,-0.1791,-0.1854,-0.1889,-0.1897,-0.1929,-0.1944,-0.1968,-0.2009,-0.1999,-0.2107,-0.2078,-0.2085,-0.2122,-0.2191,-0.2196,-0.2201,-0.2239,-0.225,-0.226,0,0,0,0,0,0,-0.171,-0.1763,-0.1789,-0.1835,-0.1874,-0.1899,-0.1926,-0.1948,-0.1997,-0.2013,-0.2028,-0.2039,-0.211,-0.2116,-0.2083,-0.2182,-0.2148,-0.2155,-0.2174,-0.2185,-0.2193,-0.2177,-0.2059,0,0,0,0,0,-0.1721,-0.1756,-0.1804,-0.1844,-0.1867,-0.1904,-0.1928,-0.1954,-0.1993,-0.2016,-0.2053,-0.2094,-0.2131,-0.2159,-0.2192,-0.2244,-0.2221,-0.2275,-0.2284,-0.2291,-0.2285,-0.229,-0.2297,-0.2222,-0.2222,-0.2222,0,0,-0.1728,-0.176,-0.1784,-0.1843,-0.1875,-0.1916,-0.1921,-0.1969,-0.2012,-0.2018,-0.2098,-0.2127,-0.2154,-0.2215,-0.2247,-0.2228,-0.2302,-0.2298,-0.2303,-0.2293,-0.2296,-0.2303,-0.2309,-0.2226,-0.2225,-0.2224,0,0,-0.1741,-0.1789,-0.1821,-0.1858,-0.1917,-0.1942,-0.1965,-0.202,-0.2057,-0.2129,-0.2147,-0.2199,-0.2266,-0.2286,-0.2303,-0.2379,-0.2347,-0.2402,-0.243,-0.2436,-0.2441,-0.2445,-0.2419,-0.242,-0.2406,-0.2406,-0.2406,0,-0.1752,-0.1799,-0.1835,-0.1874,-0.1912,-0.1959,-0.2004,-0.2045,-0.212,-0.2153,-0.2168,-0.2266,-0.2293,-0.2347,-0.238,-0.2395,-0.2384,-0.2384,-0.2443,-0.2447,-0.245,-0.2422,-0.2423,-0.2409,-0.2408,-0.2408,-0.2408,0,-0.178,-0.1833,-0.1853,-0.1923,-0.1967,-0.2013,-0.2075,-0.2133,-0.2186,-0.2222,-0.2304,-0.234,-0.2391,-0.2416,-0.2424,-0.2473,-0.2451,-0.245,-0.2406,-0.246,-0.2428,-0.2428,-0.2413,-0.2412,-0.2411,-0.241,0,0,-0.1768,-0.1858,-0.187,-0.1912,-0.2,-0.2035,-0.2116,-0.2191,-0.2239,-0.2313,-0.2367,-0.244,-0.2455,-0.2475,-0.2492,-0.2503,-0.2522,-0.2495,-0.2494,-0.2448,-0.2514,-0.2335,-0.2317,-0.2533,-0.2534,-0.2534,-0.2477,0,-0.1785,-0.1855,-0.1903,-0.1985,-0.2028,-0.2101,-0.2167,-0.2243,-0.2305,-0.2369,-0.2409,-0.2469,-0.2478,-0.2508,-0.2523,-0.253,-0.2526,-0.2535,-0.2486,-0.2484,-0.2301,-0.2313,-0.2536,-0.2477,-0.2477,-0.2477,-0.2477,0,-0.1794,-0.1842,-0.1919,-0.2017,-0.2046,-0.2108,-0.2215,-0.228,-0.237,-0.2416,-0.2471,-0.2502,-0.2546,-0.254,-0.2553,-0.2562,-0.2542,-0.2531,-0.2529,-0.2341,-0.2304,-0.2417,-0.2476,-0.2476,-0.2477,-0.2477,-0.2477,0,-0.1744,-0.1852,-0.1913,-0.195,-0.2067,-0.2127,-0.2198,-0.2298,-0.235,-0.2443,-0.2476,-0.2532,-0.2556,-0.2559,-0.2544,-0.256,-0.2526,-0.254,-0.235,-0.2336,-0.2495,-0.2491,-0.2527,-0.2527,-0.2528,-0.2528,-0.2528,0,-0.1722,-0.1776,-0.1903,-0.1933,-0.2014,-0.2113,-0.2198,-0.2272,-0.2368,-0.2403,-0.2493,-0.2498,-0.2565,-0.2555,-0.2542,-0.2425,-0.2521,-0.2336,-0.2306,-0.2516,-0.2516,-0.2494,-0.2491,-0.2526,-0.2526,-0.2526,-0.2527,0,-0.1648,-0.1733,-0.1808,-0.1943,-0.1989,-0.2049,-0.2185,-0.2233,-0.234,-0.2382,-0.2411,-0.2482,-0.2453,-0.2474,-0.2459,-0.2387,-0.232,-0.2254,-0.2451,-0.2437,-0.2129,-0.213,-0.2034,-0.2027,-0.2021,-0.2016,-0.2012,0,-0.1606,-0.164,-0.1788,-0.1832,-0.1899,-0.2003,-0.2062,-0.2198,-0.2234,-0.2334,-0.2326,-0.2347,-0.2366,-0.2182,-0.2239,-0.2168,-0.2148,-0.2104,-0.2136,-0.2096,-0.2077,-0.2087,-0.2095,-0.2003,-0.2001,-0.2,-0.1998,0,-0.152,-0.1593,-0.165,-0.1743,-0.1821,-0.1888,-0.1981,-0.1989,-0.2116,-0.2231,-0.2162,-0.2126,-0.2075,-0.2042,-0.1991,-0.1954,-0.2134,-0.2043,-0.2055,-0.2086,-0.2057,-0.2047,-0.2062,-0.1978,-0.1981,-0.1983,-0.1984,0,-0.1451,-0.1477,-0.1566,-0.1629,-0.172,-0.174,-0.1807,-0.1831,-0.1876,-0.199,-0.1951,-0.197,-0.2034,-0.1927,-0.1886,-0.1825,-0.1808,-0.1765,-0.1792,-0.1815,-0.1771,-0.1705,-0.1471,0,0,0,0,0,-0.1375,-0.1393,-0.1445,-0.1502,-0.1582,-0.1624,-0.1735,-0.1803,-0.1917,-0.181,-0.1875,-0.1812,-0.173,-0.1747,-0.1635,-0.18,-0.1829,-0.1666,-0.18,-0.1866,-0.1889,-0.1858,0,0,0,0,0,0,-0.1325,-0.1377,-0.1398,-0.1374,-0.138,-0.1443,-0.1501,-0.1579,-0.1531,-0.1648,-0.1603,-0.1692,-0.1636,-0.1746,-0.1588,-0.1595,-0.1641,-0.1694,-0.1689,-0.1852,-0.1874,-0.1892,-0.1869,0,0,0,0,0]},{"header":{"parameterUnit":"m.s-1","parameterCategory":2,"la1":30.2991,"la2":30.254,"lo1":-89.0895,"lo2":-89.0444,"dy":0.0017,"dx":0.0017,"nx":28,"ny":28,"refTime":"2024-12-31T09:00:00:Z","depth":"4","parameterNumber":3,"parameterNumberName":"V-component_of_CURRENTS"},"data":[0,0,0,0,0,0,0,0,0,0,0,0,0,0,0,0,0,0,0,0,0,0,0,0,0,0,0,0,0,0,0,0,0,0,0,0,0,0,0,0,0,0,0,0,0,0,0,0,0,0,0,0,0,0,0,0,0,0,-0.0175,-0.0175,0,-0.0103,-0.0102,-0.0101,-0.0052,-0.0052,-0.0051,-0.0051,0.0061,0.0063,0.0066,0,0,0,0,0,0,0,0,0,0,0,0,0,-0.018,-0.0181,-0.0175,-0.0175,-0.0174,-0.0103,-0.0102,-0.0101,-0.0052,-0.0052,-0.0051,-0.0051,0.006,0.0063,0.0066,0,0,0,0,0,0,0,0,0,0,0,0,0,-0.0149,-0.0181,-0.0175,-0.0142,-0.0138,-0.0103,-0.0102,-0.01,-0.0052,-0.0052,-0.0051,-0.0051,0.0059,0.0063,0.0067,0.0085,0,0,0.0079,0.0081,0,0,0,0,0,0,0,0,-0.0151,-0.0148,-0.0148,-0.0144,-0.014,-0.0087,-0.0063,-0.0037,-0.0052,-0.0083,-0.0051,-0.0051,0.0014,0.0021,0.0036,0.0091,0.0095,0.008,0.0082,0.0084,0.0085,0,0,0,0,0,0,0,-0.0153,-0.0151,-0.0145,-0.0147,-0.0142,-0.0099,-0.0095,-0.0057,-0.0036,-0.008,-0.0077,-0.0071,0.0016,0.0032,0.0039,0.0097,0.008,0.0083,0.0086,0.0087,0.0181,0.0181,0,0,0,0,0,0,-0.017,-0.0154,-0.0148,-0.0143,-0.0146,-0.01,-0.0095,-0.0103,-0.0037,-0.0027,-0.0072,-0.0069,0.0024,0.0034,0.0043,0.0069,0.0084,0.0088,0.009,0.0181,0.0181,0.0181,0,0,0,0,0,0,-0.0171,-0.0171,-0.015,-0.0147,-0.0141,-0.0101,-0.011,-0.0102,-0.0089,-0.0031,-0.002,-0.0067,0.0025,0.0037,0.0073,0.0073,0.009,0.0093,0.0181,0.0181,0.0181,0.012,0,0,0,0,0,0,-0.0171,-0.0172,-0.0184,-0.0149,-0.0142,-0.0136,-0.011,-0.0101,-0.0086,-0.0082,-0.0023,-0.0012,0.0026,0.0067,0.0077,0.0079,0.0097,0.0181,0.0181,0.0181,0.0122,0.0118,0.0115,0,0,0,0,0,-0.0172,-0.019,-0.0186,-0.0185,-0.0161,-0.0137,-0.0129,-0.0097,-0.0087,-0.0084,-0.0044,-0.0014,0.0075,0.007,0.0082,0.0086,0.0181,0.0181,0.0181,0.0124,0.0119,0.0115,0,0,0,0,0,0,-0.0192,-0.0185,-0.018,-0.0194,-0.0172,-0.0129,-0.0125,-0.0104,-0.0071,-0.0068,-0.0014,-0.0,0.0031,0.0066,0.006,0.0113,0.0133,0.0135,0.0085,0.0081,0.0077,0.0068,0.01,0,0,0,0,0,-0.0206,-0.0223,-0.0198,-0.0209,-0.0202,-0.0166,-0.0153,-0.0133,-0.0099,-0.0084,-0.0043,0.0002,0.0041,0.0066,0.0103,0.0134,0.0173,0.0144,0.0141,0.0137,0.0138,0.0198,0.0199,0.0181,0.0181,0.0181,0,0,-0.0215,-0.0216,-0.0223,-0.0215,-0.0196,-0.019,-0.0157,-0.0144,-0.0134,-0.0077,-0.0052,-0.0012,0.0045,0.0077,0.0094,0.0107,0.0161,0.0137,0.0134,0.0137,0.0198,0.02,0.0201,0.0181,0.0181,0.0181,0,0,-0.024,-0.0245,-0.0264,-0.0252,-0.0234,-0.0211,-0.0212,-0.0175,-0.0155,-0.0129,-0.0085,-0.0045,0.0011,0.0057,0.0086,0.0086,0.0135,0.0094,0.0075,0.0132,0.0134,0.0136,0.0176,0.0183,0.0098,0.0097,0.0097,0,-0.0254,-0.0276,-0.0261,-0.027,-0.0266,-0.0226,-0.0235,-0.0206,-0.0161,-0.0144,-0.0131,-0.0041,0.0004,0.0055,0.0055,0.0078,0.0111,0.0085,0.0126,0.0129,0.0133,0.0174,0.0182,0.0094,0.0095,0.0095,0.0095,0,-0.0286,-0.0303,-0.0311,-0.0317,-0.0306,-0.0308,-0.0272,-0.0256,-0.023,-0.0196,-0.0148,-0.0083,-0.0028,-0.0007,0.0026,0.0072,0.0087,0.0109,0.0135,0.0131,0.0174,0.0184,0.009,0.0091,0.0092,0.0093,0,0,-0.0327,-0.0335,-0.0341,-0.0354,-0.0336,-0.0333,-0.0317,-0.0289,-0.0277,-0.0224,-0.0199,-0.0125,-0.0086,-0.005,0.0001,0.0055,0.0104,0.0086,0.0091,0.012,0.0219,0.02,0.0208,0.0132,0.0134,0.0135,0.0235,0,-0.0361,-0.0398,-0.0387,-0.0413,-0.0427,-0.0392,-0.0382,-0.0349,-0.0307,-0.027,-0.0192,-0.0149,-0.0102,-0.0078,-0.0017,0.0073,0.0127,0.0074,0.0224,0.0228,0.0207,0.0218,0.014,0.0242,0.0244,0.0246,0.0247,0,-0.04,-0.0422,-0.046,-0.0472,-0.0475,-0.0482,-0.0464,-0.0447,-0.0377,-0.0342,-0.0276,-0.0212,-0.0126,-0.0089,0.0067,0.0029,0.0117,0.0189,0.0195,0.0206,0.0227,0.0252,0.0265,0.0263,0.0262,0.0261,0.026,0,-0.0448,-0.0475,-0.0513,-0.0518,-0.0518,-0.053,-0.0525,-0.0475,-0.046,-0.0386,-0.0361,-0.0249,-0.0193,-0.0068,0.0081,0.0075,0.0252,0.0266,0.0334,0.0333,0.0347,0.0344,0.038,0.038,0.0379,0.0379,0.0379,0,-0.0493,-0.0524,-0.0545,-0.0567,-0.0612,-0.0588,-0.061,-0.0581,-0.0532,-0.0506,-0.0406,-0.0349,-0.0184,-0.0061,0.0071,0.0227,0.0249,0.0333,0.0362,0.0317,0.031,0.0353,0.0349,0.0383,0.0382,0.0381,0.0381,0,-0.0536,-0.055,-0.0599,-0.0624,-0.0639,-0.0671,-0.0683,-0.0685,-0.063,-0.059,-0.0569,-0.0422,-0.0258,-0.0091,0.012,0.0206,0.0363,0.0417,0.0347,0.0369,0.0406,0.0398,0.0493,0.0493,0.0493,0.0493,0.0494,0,-0.0559,-0.0592,-0.0654,-0.0696,-0.0716,-0.0756,-0.078,-0.0745,-0.0731,-0.062,-0.0597,-0.044,-0.0325,-0.0038,0.0127,0.0361,0.0396,0.0458,0.044,0.0402,0.042,0.0411,0.0403,0.0494,0.0494,0.0494,0.0494,0,-0.0601,-0.063,-0.0674,-0.0763,-0.0814,-0.0852,-0.0873,-0.0864,-0.0795,-0.0754,-0.0591,-0.0427,-0.0245,-0.003,0.0145,0.0317,0.0404,0.0461,0.0461,0.0445,0.0404,0.0421,0.0412,0.0495,0.0495,0.0495,0.0495,0,-0.0632,-0.0682,-0.075,-0.0822,-0.0891,-0.0916,-0.0919,-0.0871,-0.0837,-0.0696,-0.0641,-0.0419,-0.029,-0.005,0.012,0.0271,0.0307,0.0343,0.035,0.0351,0.0274,0.0199,0.0255,0,0,0,0,0,-0.0656,-0.0724,-0.0802,-0.0876,-0.0938,-0.0964,-0.0966,-0.0944,-0.0873,-0.0762,-0.0691,-0.0503,-0.0224,-0.0096,0.0055,0.0094,0.0302,0.027,0.0339,0.0499,0.0498,0.0429,0,0,0,0,0,0,-0.0677,-0.0766,-0.0809,-0.0896,-0.0947,-0.0997,-0.0991,-0.0939,-0.0856,-0.0761,-0.0604,-0.0497,-0.0226,-0.0313,0.0049,0.0095,0.0153,0.0408,0.0411,0.0499,0.0499,0.0498,0.0427,0,0,0,0,0]}]]